Weather in Lake Ladoga

Russia / Saint-Petersburg and Leningrad Oblast     60°00′00″N   31°17′20″E
temp.,
°C
wind,
m/s
gust,
m/s
humid.,
%
clouds,
%
prec.,
mm/h
press.,
hPa
HPBL,
m
12 may, wed
wed1200:00+11s45835 0.0 102346
03:00+10s46905 0.0 102471
06:00+10s46840 0.0 102381
09:00+13s45660 0.0 1023148
12:00+17sse45570 0.0 1023371
15:00+19s46512 0.0 1022573
18:00+19s34540 0.0 1021634
21:00+15se11702 0.0 102011
13 may, thu
thu1300:00+14ese33770 0.0 102020
03:00+11se47820 0.0 101993
06:00+11se48854 0.0 1018148
09:00+13se57788 0.0 1018348
12:00+15se57605 0.0 1017644
15:00+16sse24528 0.0 1015767
18:00+16ese45538 0.0 1013734
21:00+13ne236897 0.0 101211
14 may, fri
fri1400:00+12ne2279100 0.0 101023
03:00+11sse4796100 1.3 1009168
06:00+10s599398 1.1 1010266
09:00+10s5890100 1.2 1010280
12:00+13s576265 0.1 1010635
15:00+13s5762100 0.1 1011504
18:00+12sse4775100 0.3 1010334
21:00+12sse467668 0.3 1009114
15 may, sat
sat1500:00+10sse349062 0.0 100942
03:00+10se2391100 0.2 100843
06:00+10se339164 0.0 100748
09:00+12ese128148 0.0 1007186
12:00+12nne448371 0.0 1007445
15:00+11n458664 0.2 1006197
18:00+10n459688 2.2 100674
21:00+7n349896 3.3 100551
16 may, sun
sun1600:00+7n239867 0.0 100537
03:00+6nnw349885 0.0 100563
06:00+6nnw3699100 0.1 1006111
09:00+7n4698100 0.1 1007127
12:00+7n349699 0.1 1009125
15:00+8n3592100 0.2 100991
18:00+8n1292100 0.0 101040
21:00+10wnw2288100 0.0 101216